Date String (YYYY-MM-DD hh:mm:ss) UTC,Instrument flags,absolute air pressure of the measurement (hPa),sample flow rate (lpm),inlet stack bypass flow (lpm),air temperature of the measurement (°C),ambient temperature measured by the external sensor (°C),aerosol sample conditioner tube jacket temperature (°C),OPC LED temperature (°C),internal box temperature (°C),relative humidity of the measurement (%),span deviation,mass concentration of particles derived from Lorenz-Mie calculation of OPC scattering (μg/m³),mass concentration of particles derived from Lorenz-Mie calculation of OPC scattering (μg/m³),mass concentration of particles derived from Lorenz-Mie calculation of OPC scattering (μg/m³)
DateTimeUTC,F1_M11,P_M11,Q1_M11,Q2_M11,T1_M11,T2_M11,T3_M11,T4_M11,T5_M11,U1_M11,ZSPAN_M11,X0_M11,X2_M11,X1_M11
2023-11-27 12:00:00,SystemResetWarning,0833.4,4.99,000.00,019.0,018.4,000.0,027.3,020.1,12.1,0000.0,0006.03,0004.25,0004.07
2023-11-27 12:01:00,SystemResetWarning,0833.4,4.99,000.00,019.0,018.3,000.0,027.3,020.0,12.1,0000.0,0005.80,0004.21,0004.05
2023-11-27 12:02:00,SystemResetWarning,0833.4,5.00,000.00,018.9,018.3,000.0,027.3,020.0,12.1,0000.0,0005.77,0004.20,0004.04
2023-11-27 12:03:00,SystemResetWarning,0833.4,5.01,000.00,018.9,018.2,000.0,027.3,020.0,12.1,0000.0,0005.83,0004.20,0004.03
2023-11-27 12:04:00,SystemResetWarning,0833.5,4.99,000.00,018.9,018.1,000.0,027.3,020.0,12.2,0000.0,0005.93,0004.20,0004.01
2023-11-27 12:05:00,SystemResetWarning,0833.6,5.00,000.00,018.9,018.1,000.0,027.3,020.0,12.2,0000.0,0006.22,0004.20,0004.00
2023-11-27 12:06:00,SystemResetWarning,0833.6,5.00,000.00,018.9,018.0,000.0,027.3,020.0,12.2,0000.0,0006.38,0004.22,0003.98
2023-11-27 12:07:00,SystemResetWarning,0833.6,5.00,000.00,018.8,018.0,000.0,027.3,020.0,12.2,0000.0,0006.39,0004.20,0003.97
2023-11-27 12:08:00,SystemResetWarning,0833.5,4.99,000.00,018.8,017.9,000.0,027.3,020.0,12.2,0000.0,0006.50,0004.22,0003.96
2023-11-27 12:09:00,SystemResetWarning,0833.4,5.00,000.00,018.8,017.9,000.0,027.3,020.0,12.2,0000.0,0006.47,0004.20,0003.95
2023-11-27 12:10:00,SystemResetWarning,0833.4,5.00,000.00,018.8,017.9,000.0,027.3,020.0,12.2,0000.0,0006.48,0004.20,0003.95
2023-11-27 12:11:00,SystemResetWarning,0833.4,5.00,000.00,018.8,017.9,000.0,027.3,020.0,12.2,0000.0,0006.44,0004.18,0003.93
2023-11-27 12:12:00,SystemResetWarning,0833.4,5.00,000.00,018.8,017.8,000.0,027.3,020.0,12.2,0000.0,0006.49,0004.18,0003.93
2023-11-27 12:13:00,SystemResetWarning,0833.5,4.99,000.00,018.8,017.8,000.0,027.3,020.0,12.3,0000.0,0006.59,0004.21,0003.95
2023-11-27 12:14:00,SystemResetWarning,0833.4,5.01,000.00,018.8,017.8,000.0,027.3,020.1,12.3,0000.0,0006.68,0004.20,0003.95
2023-11-27 12:15:00,SystemResetWarning,0833.4,5.02,000.00,018.9,018.2,000.0,027.3,020.5,12.2,0000.0,0006.71,0004.19,0003.95
2023-11-27 12:16:00,SystemResetWarning,0833.5,5.00,000.00,019.0,018.9,000.0,027.3,020.9,12.1,0000.0,0006.44,0004.19,0003.96
2023-11-27 12:17:00,SystemResetWarning,0833.5,4.99,000.00,019.1,019.0,000.0,027.3,020.7,12.1,0000.0,0006.19,0004.15,0003.96
2023-11-27 12:18:00,SystemResetWarning,0833.5,5.00,000.00,019.1,018.9,000.0,027.3,020.5,12.1,0000.0,0006.58,0004.17,0003.97
2023-11-27 12:19:00,SystemResetWarning,0833.5,5.00,000.00,019.0,018.8,000.0,027.3,020.3,12.1,0000.0,0007.04,0004.15,0003.98
2023-11-27 12:20:00,SystemResetWarning,0833.5,5.01,000.00,019.0,018.6,000.0,027.3,020.2,12.1,0000.0,0007.11,0004.18,0003.98
2023-11-27 12:21:00,SystemResetWarning,0833.6,5.00,000.00,018.9,018.4,000.0,027.3,020.0,12.1,0000.0,0007.21,0004.18,0003.97
2023-11-27 12:22:00,SystemResetWarning,0833.6,4.99,000.00,018.9,018.3,000.0,027.3,020.0,12.2,0000.0,0007.64,0004.18,0003.97
2023-11-27 12:23:00,SystemResetWarning,0833.6,4.99,000.00,018.9,018.2,000.0,027.3,020.0,12.2,0000.0,0008.19,0004.18,0003.96
2023-11-27 12:24:00,SystemResetWarning,0833.6,5.01,000.00,018.9,018.1,000.0,027.3,020.0,12.2,0000.0,0008.14,0004.13,0003.92
2023-11-27 12:25:00,SystemResetWarning,0833.6,5.01,000.00,018.8,018.0,000.0,027.3,020.0,12.2,0000.0,0008.05,0004.09,0003.89
2023-11-27 12:26:00,SystemResetWarning,0833.6,4.98,000.00,018.8,018.0,000.0,027.3,020.0,12.2,0000.0,0007.93,0004.07,0003.87
2023-11-27 12:27:00,SystemResetWarning,0833.7,5.00,000.00,018.8,017.9,000.0,027.3,020.0,12.2,0000.0,0007.86,0004.03,0003.83
2023-11-27 12:28:00,SystemResetWarning,0833.7,5.00,000.00,018.8,017.8,000.0,027.3,020.0,12.2,0000.0,0007.87,0004.02,0003.81
2023-11-27 12:29:00,SystemResetWarning,0833.7,5.00,000.00,018.8,017.8,000.0,027.3,020.0,12.2,0000.0,0007.64,0003.99,0003.78
2023-11-27 12:30:00,SystemResetWarning,0833.7,5.00,000.00,018.8,017.8,000.0,027.3,020.0,12.2,0000.0,0007.32,0003.97,0003.76
2023-11-27 12:31:00,SystemResetWarning,0833.7,5.01,000.00,018.8,017.8,000.0,027.3,020.1,12.2,0000.0,0007.26,0003.94,0003.74
2023-11-27 12:32:00,SystemResetWarning,0833.6,5.01,000.00,018.8,018.2,000.0,027.2,020.5,12.1,0000.0,0007.10,0003.90,0003.72
2023-11-27 12:33:00,SystemResetWarning,0833.7,5.01,000.00,019.0,019.0,000.0,027.2,020.9,12.0,0000.0,0006.62,0003.88,0003.71
2023-11-27 12:34:00,SystemResetWarning,0833.7,4.98,000.00,019.1,019.1,000.0,027.3,020.6,12.0,0000.0,0005.26,0003.85,0003.69
2023-11-27 12:35:00,SystemResetWarning,0833.6,5.00,000.00,019.0,018.9,000.0,027.3,020.4,12.0,0000.0,0005.19,0003.83,0003.67
2023-11-27 12:36:00,SystemResetWarning,0833.6,5.02,000.00,019.0,018.8,000.0,027.3,020.2,12.0,0000.0,0005.12,0003.81,0003.65
2023-11-27 12:37:00,SystemResetWarning,0833.6,5.00,000.00,019.0,018.6,000.0,027.2,020.1,12.0,0000.0,0005.13,0003.81,0003.64
2023-11-27 12:38:00,SystemResetWarning,0833.5,4.99,000.00,018.9,018.5,000.0,027.3,020.0,12.0,0000.0,0005.19,0003.82,0003.63
2023-11-27 12:39:00,SystemResetWarning,0833.6,4.99,000.00,018.9,018.3,000.0,027.2,020.0,12.1,0000.0,0005.10,0003.78,0003.60
2023-11-27 12:40:00,SystemResetWarning,0833.6,5.01,000.00,018.8,018.2,000.0,027.3,020.0,12.1,0000.0,0004.99,0003.74,0003.58
2023-11-27 12:41:00,SystemResetWarning,0833.6,5.01,000.00,018.8,018.2,000.0,027.3,020.0,12.1,0000.0,0004.96,0003.70,0003.53
2023-11-27 12:42:00,SystemResetWarning,0833.6,5.00,000.00,018.8,018.1,000.0,027.3,020.0,12.1,0000.0,0004.96,0003.69,0003.50
2023-11-27 12:43:00,SystemResetWarning,0833.7,5.00,000.00,018.8,018.0,000.0,027.3,020.0,12.1,0000.0,0005.11,0003.66,0003.47
2023-11-27 12:44:00,SystemResetWarning,0833.7,4.99,000.00,018.8,018.0,000.0,027.3,020.0,12.1,0000.0,0005.55,0003.63,0003.43
2023-11-27 12:45:00,SystemResetWarning,0833.7,5.00,000.00,018.8,017.9,000.0,027.3,020.0,12.1,0000.0,0005.47,0003.59,0003.40
2023-11-27 12:46:00,SystemResetWarning,0833.6,5.01,000.00,018.8,017.8,000.0,027.3,020.0,12.1,0000.0,0005.47,0003.58,0003.40
2023-11-27 12:47:00,SystemResetWarning,0833.6,5.00,000.00,018.8,017.8,000.0,027.3,020.0,12.1,0000.0,0005.50,0003.57,0003.38
2023-11-27 12:48:00,SystemResetWarning,0833.6,5.00,000.00,018.8,017.9,000.0,027.2,020.2,12.1,0000.0,0005.49,0003.56,0003.37
2023-11-27 12:49:00,SystemResetWarning,0833.6,5.01,000.00,018.9,018.5,000.0,027.2,020.7,12.1,0000.0,0005.42,0003.55,0003.37
2023-11-27 12:50:00,SystemResetWarning,0833.7,4.99,000.00,019.0,019.1,000.0,027.2,020.9,12.0,0000.0,0005.57,0003.57,0003.37
2023-11-27 12:51:00,SystemResetWarning,0833.6,4.98,000.00,019.0,019.0,000.0,027.2,020.5,11.9,0000.0,0005.62,0003.58,0003.38
2023-11-27 12:52:00,SystemResetWarning,0833.6,5.00,000.00,019.0,018.8,000.0,027.2,020.3,12.0,0000.0,0005.66,0003.59,0003.39
2023-11-27 12:53:00,SystemResetWarning,0833.6,5.01,000.00,019.0,018.7,000.0,027.2,020.1,12.0,0000.0,0005.63,0003.59,0003.41
2023-11-27 12:54:00,SystemResetWarning,0833.6,5.00,000.00,018.9,018.5,000.0,027.2,020.0,12.0,0000.0,0006.03,0003.61,0003.43
2023-11-27 12:55:00,SystemResetWarning,0833.6,4.99,000.00,018.9,018.4,000.0,027.2,020.0,12.0,0000.0,0005.74,0003.64,0003.46
2023-11-27 12:56:00,SystemResetWarning,0833.6,5.00,000.00,018.9,018.3,000.0,027.2,020.0,12.1,0000.0,0005.63,0003.65,0003.48
2023-11-27 12:57:00,SystemResetWarning,0833.6,5.01,000.00,018.8,018.2,000.0,027.3,020.0,12.0,0000.0,0005.62,0003.66,0003.49
2023-11-27 12:58:00,SystemResetWarning,0833.7,5.01,000.00,018.8,018.1,000.0,027.3,020.0,12.1,0000.0,0005.67,0003.67,0003.51
2023-11-27 12:59:00,SystemResetWarning,0833.7,4.99,000.00,018.8,018.0,000.0,027.3,020.0,12.1,0000.0,0005.77,0003.68,0003.52
